CAPE
1470 1337 1090 977 1030 1219 1188 1191 1026 936 942 1050 999 322 0 0 0 0 0 0 0 0 10 0 0 0 0 0 1 11 10 23 233 617 840 1681 2287 2324 2385 2425 2520 1818 1242 982 864 773 599 442 423 431 230 12 0 0 0 0 3 8 24 32 39 43 37 39 24 18 10 9 6 6 4 9 10 13 6 3 1 1 2 8 6 5 20 11 21
1340 1228 1047 920 987 946 866 826 746 625 646 763 756 547 0 0 0 0 0 0 0 0 4 0 0 0 0 0 41 43 40 142 358 666 1047 1827 2205 2342 2328 2434 2466 1803 1355 1135 654 653 543 323 270 367 80 4 0 0 0 0 2 14 23 32 34 31 13 8 8 4 2 0 0 0 3 4 7 9 5 1 4 3 9 8 13 20 24 20 21
1231 1205 1114 993 874 680 348 375 351 365 361 521 608 0 0 0 0 0 0 0 0 0 0 0 0 0 0 5 55 79 149 277 539 829 1281 1837 2052 2106 2332 2408 2431 1888 1303 966 885 711 514 361 238 166 144 1 0 0 0 0 0 9 14 24 26 17 6 6 3 5 7 7 0 0 0 0 1 6 4 6 4 8 12 19 22 23 21 14 12
1161 1133 1150 963 768 473 290 215 94 157 155 72 351 0 0 0 0 0 0 0 0 0 0 0 0 0 1 48 84 174 249 445 747 974 1321 1706 1877 2109 2199 2291 2386 2023 1251 1001 818 594 453 440 378 224 50 19 0 0 0 0 0 7 11 20 6 4 2 0 0 4 6 7 0 0 0 0 0 1 5 10 5 18 26 28 17 13 12 14 14
1124 1063 1192 882 640 436 162 64 26 31 45 0 0 0 0 0 0 0 0 0 0 4 0 0 0 0 16 80 115 273 330 542 781 1024 1321 1578 1796 1984 2120 2261 2244 2088 1393 979 725 527 614 409 432 260 77 31 0 0 0 0 1 6 18 19 2 1 1 0 1 5 11 4 0 0 0 0 2 7 8 10 17 22 24 17 8 9 12 16 36
1173 1057 1092 904 681 337 104 54 52 71 59 0 0 0 0 0 0 0 141 38 3 0 0 0 0 0 6 59 136 200 442 551 769 967 1199 1468 1664 1899 1979 2080 2227 1962 1398 1102 874 645 752 510 360 338 129 0 0 0 1 1 6 14 16 19 7 3 0 0 4 9 9 0 2 4 2 1 2 4 5 4 8 13 13 4 6 14 25 48 57
1147 1131 1033 927 658 330 125 69 59 295 387 0 0 0 0 0 0 0 0 0 0 0 0 0 0 0 0 39 287 438 481 580 736 950 1139 1389 1562 1791 1834 2011 2083 2012 1439 1143 1031 741 593 465 340 349 218 1 0 0 1 4 5 10 16 23 14 5 2 6 14 13 10 3 2 0 0 10 18 16 13 8 7 12 0 0 3 26 35 29 46
1060 1088 1086 985 714 382 209 124 188 476 0 0 0 4 5 0 0 0 0 0 0 0 0 0 0 0 0 2 562 555 394 595 754 936 1075 1283 1452 1729 1839 1978 1983 1876 1562 1247 1038 773 590 592 387 223 220 1 0 0 1 6 4 7 13 8 3 3 6 12 17 15 12 9 3 6 5 5 10 11 11 16 14 1 0 4 26 56 52 44 56
1014 982 986 1024 926 710 563 573 618 481 17 0 0 0 1 6 0 0 0 0 0 0 0 0 0 0 0 0 263 648 402 544 747 911 1057 1153 1249 1400 1598 1819 1903 1587 1554 1365 1021 889 738 527 435 289 243 125 0 0 0 1 0 5 8 5 2 3 7 15 19 21 16 5 1 15 15 11 7 4 5 4 2 6 9 18 45 41 46 46 42
987 917 844 909 978 985 920 807 738 509 291 0 0 0 0 0 2 0 0 0 0 0 0 0 0 5 19 0 46 758 622 577 686 985 992 1079 1116 1223 1286 1684 1584 1612 1592 1260 1107 823 792 591 466 390 251 169 38 0 2 4 1 0 4 7 2 7 14 16 17 20 16 6 3 6 16 25 24 11 16 14 10 2 18 38 37 35 41 53 49
932 908 836 754 846 937 980 922 790 516 335 209 0 0 4 0 0 2 0 0 0 0 0 0 0 8 93 5 0 421 873 712 770 885 840 971 1025 1030 1083 1386 1486 1521 1643 1332 1049 837 753 667 513 514 320 80 0 0 0 4 1 1 4 5 10 12 9 9 9 16 21 10 4 15 20 20 18 8 11 6 7 9 19 40 38 34 36 40 41
894 801 797 760 701 790 864 839 783 531 382 350 0 0 3 12 6 1 1 0 7 0 0 0 0 0 617 548 393 265 610 919 879 871 819 862 958 1062 1159 1135 1451 1527 1484 1449 1232 1032 885 684 513 293 208 163 58 3 0 0 0 0 0 4 4 1 0 2 6 12 16 11 3 4 16 22 24 11 11 14 11 20 36 42 37 36 39 39 41
888 731 688 711 727 720 711 726 759 539 406 371 248 0 1 21 52 69 38 4 1 0 0 0 0 0 0 679 840 662 723 821 940 917 866 859 935 1073 1150 1243 1336 1449 1324 1388 1377 1174 1054 706 639 357 294 239 5 2 0 1 0 0 2 2 2 0 0 3 8 8 12 12 8 1 18 21 19 18 10 12 19 32 35 37 39 37 36 36 42
999 758 623 616 663 738 795 734 753 581 446 378 321 48 61 60 70 57 12 19 2 0 0 0 0 0 0 73 707 856 902 873 845 824 880 901 1040 1102 1215 1290 1275 1301 1218 1223 1350 1257 1174 897 708 465 398 250 1 0 1 6 6 1 3 0 0 0 0 0 2 5 9 11 10 3 10 22 24 21 16 17 26 28 38 38 38 37 37 42 45
1077 841 654 573 588 657 718 690 672 568 395 364 307 228 95 101 75 87 44 170 132 0 0 0 0 0 0 0 0 4 1149 1081 1030 964 888 964 1103 1244 1288 1291 1205 1130 1182 1213 1279 1279 972 962 779 590 343 275 0 0 3 2 0 0 1 2 0 0 0 0 3 6 5 14 15 5 3 18 22 17 10 24 35 27 26 31 41 40 41 45 48
1110 1056 814 622 599 641 764 701 562 531 384 302 253 215 182 220 140 132 106 244 260 186 0 0 0 0 0 0 0 0 0 958 1259 1112 1172 1194 1264 1342 1318 1324 1268 1183 1153 1213 1344 1354 1220 967 708 504 272 140 116 42 22 1 0 0 2 2 0 0 0 0 2 2 6 17 15 9 3 8 8 10 10 6 30 34 49 47 32 50 49 46 38
1187 1182 1093 785 646 662 727 848 673 481 383 305 266 236 230 273 226 136 286 283 240 239 0 0 0 0 0 0 0 77 0 221 1265 1213 1375 1420 1350 1387 1351 1319 1347 1290 1207 1345 1279 1420 1247 988 725 443 312 248 60 98 5 0 2 0 0 2 0 0 0 0 0 0 12 14 13 12 4 13 13 12 12 14 34 46 46 46 29 28 29 33 37
1265 1214 1222 947 727 715 789 924 970 1001 830 433 282 288 301 302 300 243 263 354 350 386 0 0 0 4 0 0 0 16 653 782 1106 916 1202 1262 1433 1318 1446 1393 1352 1307 1090 874 1032 1026 1025 1052 733 392 310 165 202 0 3 23 3 1 0 0 0 0 0 0 0 0 18 17 5 9 5 7 10 12 11 22 30 48 45 43 33 35 40 37 33
1318 1251 1269 1169 840 751 850 1036 1271 1549 1629 1421 804 388 380 368 366 316 324 341 390 485 477 438 388 315 144 6 40 107 40 643 580 646 868 867 1180 1279 1307 1182 1186 1141 1099 849 914 953 1005 803 636 430 375 392 328 222 87 22 0 1 0 0 0 0 0 0 0 0 11 6 5 7 7 10 10 9 12 39 41 42 44 34 34 31 31 28 34
1349 1270 1250 1246 1018 806 859 1144 1485 1725 1734 1703 1476 829 463 466 422 409 401 457 544 589 584 589 551 479 395 185 89 11 0 717 744 554 113 550 618 926 902 930 942 1073 1075 867 811 802 880 887 730 486 477 364 382 306 201 84 13 2 2 0 0 0 0 0 0 0 8 1 6 12 5 10 11 7 14 41 44 46 36 28 32 26 16 41 45
1345 1255 1223 1181 1261 980 953 1161 1454 1696 1654 1601 1562 1344 695 574 555 507 516 563 632 739 723 693 651 556 360 350 475 490 593 709 839 845 685 495 680 707 671 714 833 956 949 851 746 796 878 871 702 501 507 452 323 194 208 198 25 2 13 0 0 0 0 0 0 0 0 0 4 14 10 16 19 12 16 44 28 20 24 31 38 22 14 26 44
1368 1254 1168 1118 1234 1230 1108 1167 1338 1472 1469 1490 1476 1456 1138 659 640 609 588 628 694 766 826 795 641 490 407 447 492 717 956 1084 1154 1074 1005 798 926 864 772 752 635 597 695 681 666 714 809 823 775 555 493 516 299 0 26 82 63 3 8 0 0 0 0 0 0 0 0 0 7 8 12 16 24 26 16 25 20 14 17 42 49 21 19 48 54
1418 1327 1231 1150 1180 1287 1252 1208 1258 1269 1298 1359 1438 1407 1280 821 706 713 697 679 682 688 645 640 602 587 605 687 683 661 937 1116 1256 1190 1172 1153 1054 930 867 795 620 653 550 586 633 661 729 721 756 755 553 554 512 172 0 3 10 0 1 1 0 0 1 0 0 0 0 0 10 9 10 11 15 23 21 14 14 15 21 53 54 34 19 24 34
1432 1366 1320 1304 1202 1250 1302 1228 1167 1140 1170 1246 1342 1378 1347 1104 735 753 760 731 689 654 689 763 770 822 882 925 854 588 600 774 1019 1165 1197 1211 1089 1011 1042 939 701 650 678 657 710 836 823 771 803 680 211 330 452 513 229 0 0 2 5 13 0 0 1 0 0 0 0 0 5 5 13 18 16 18 18 17 17 20 23 39 41 21 21 38 48
1470 1420 1372 1332 1303 1260 1325 1334 1274 1188 1164 1205 1273 1307 1320 1314 967 810 828 858 866 920 971 980 957 1015 1063 981 883 696 666 805 918 1106 1242 1236 1195 1192 1130 916 770 702 724 730 825 841 845 850 826 478 432 236 14 452 426 0 64 44 30 3 0 0 0 0 0 0 0 0 5 8 7 24 23 17 18 15 14 21 24 19 20 22 20 48 52
1516 1456 1418 1408 1401 1331 1348 1391 1403 1354 1273 1240 1241 1247 1241 1246 980 884 942 992 1066 1113 1078 1070 1097 1125 1066 1030 995 683 698 833 952 1072 1190 1348 1415 1249 1221 1054 904 952 955 867 846 793 689 758 688 492 438 387 478 632 346 280 195 28 16 1 0 1 0 0 0 0 0 1 1 0 4 12 24 19 10 10 12 21 18 16 25 27 26 33 45
1567 1507 1491 1470 1457 1456 1360 1351 1386 1424 1399 1327 1278 1251 1227 1196 1028 1003 1050 1139 1190 1167 1154 1166 1160 1141 1146 1151 948 710 764 867 1054 1238 1446 1593 1562 1309 1229 1157 1000 1016 1047 938 916 752 681 569 653 470 395 416 553 511 148 184 149 10 44 2 0 1 2 0 0 0 0 0 0 0 0 3 9 8 6 5 11 21 14 11 8 14 38 37 34
1346 1642 1654 1607 1588 1571 1496 1339 1330 1361 1448 1440 1371 1324 1300 1262 1193 1206 1254 1262 1301 1308 1314 1300 1320 1274 1300 1173 963 891 911 1063 1206 1318 1361 1510 1578 1498 1260 1200 1121 1056 997 1042 961 922 812 726 523 486 445 412 422 215 236 0 150 75 117 31 0 0 4 0 0 0 0 1 0 0 0 0 12 3 0 5 12 14 14 14 12 11 30 38 30
1424 1506 1772 1821 1737 1635 1589 1495 1319 1280 1351 1457 1494 1448 1399 1360 1344 1362 1400 1438 1444 1472 1463 1440 1408 1398 1346 1217 1104 1117 1255 1445 1406 1221 1336 1427 1548 1611 1419 1358 1400 1220 1121 953 936 873 740 724 678 470 490 369 436 267 159 188 108 101 132 58 0 0 1 0 0 0 0 2 2 2 2 2 4 8 3 3 5 9 11 7 14 14 9 15 18
1496 1445 1599 1690 1651 1544 1637 1612 1417 1282 1279 1335 1428 1488 1474 1444 1423 1410 1430 1465 1519 1549 1586 1570 1542 1473 1396 1312 1184 1223 1398 1608 1469 1171 1271 1383 1554 1686 1517 1422 1433 1385 1302 1228 1162 944 861 758 654 595 387 412 413 395 236 125 128 119 133 70 0 0 1 0 0 0 0 0 0 3 5 3 1 3 4 1 3 12 18 10 6 10 12 20 19
1429 1477 1546 1549 1584 1604 1614 1686 1612 1404 1282 1281 1303 1330 1424 1439 1429 1436 1440 1463 1492 1550 1633 1632 1600 1533 1475 1393 1313 1314 1521 1688 1682 1639 1498 1419 1649 1707 1412 1457 1466 1422 1394 1348 1272 1114 932 933 698 482 493 375 330 350 318 211 165 152 137 35 0 0 1 0 0 0 0 0 0 0 3 0 1 2 3 3 0 7 6 3 13 8 9 10 25
1294 1472 1616 1657 1637 1602 1643 1678 1665 1528 1406 1305 1266 1273 1266 1310 1338 1395 1452 1493 1505 1532 1582 1604 1602 1591 1537 1482 1432 1404 1482 1553 1565 1731 1767 1580 1717 1596 1479 1422 1489 1448 1436 1387 1302 1301 1164 1161 905 520 435 417 306 282 350 276 102 88 97 15 0 2 4 0 0 0 0 0 0 0 0 0 0 0 0 2 0 2 10 8 6 8 8 10 15
1420 1487 1524 1602 1656 1668 1644 1542 1425 1370 1360 1333 1291 1276 1222 1189 1230 1286 1374 1476 1531 1538 1550 1572 1630 1656 1647 1581 1594 1596 1511 1406 1461 1778 1813 1699 1623 1637 1568 1549 1537 1529 1505 1421 1407 1438 1328 1220 1106 808 496 399 373 332 330 292 148 75 76 29 6 5 9 4 0 0 0 0 0 0 0 0 0 0 1 2 1 1 4 8 6 2 3 10 11
1418 1511 1525 1529 1542 1528 1485 1385 1332 1303 1258 1234 1188 1133 1135 1128 1125 1198 1275 1400 1479 1532 1553 1615 1670 1734 1745 1705 1742 1821 1865 1834 1664 1668 1856 1781 1741 1683 1661 1690 1675 1636 1543 1429 1487 1437 1493 1317 1232 913 621 448 400 393 369 288 245 75 24 16 7 6 7 3 0 0 0 0 0 0 0 0 0 0 0 0 0 0 0 0 0 0 0 9 6
1299 1421 1479 1506 1507 1488 1424 1312 1207 1144 1143 1148 1112 1081 1086 1090 1093 1148 1238 1312 1399 1458 1542 1635 1703 1797 1842 1848 1866 1905 1905 1932 1947 1916 1889 1850 1785 1679 1785 1800 1782 1669 1503 1454 1479 1557 1538 1490 1270 1082 773 590 436 378 359 334 306 202 33 4 6 3 3 5 5 0 1 0 0 0 0 0 0 0 0 0 0 0 0 0 0 0 0 0 0
1315 1370 1450 1486 1473 1447 1307 1215 1103 1074 1111 1142 1112 1074 1058 1049 1063 1128 1213 1282 1337 1380 1470 1570 1668 1780 1861 1863 1867 1850 1857 1904 2012 2017 1950 1972 1904 1845 1911 1892 1806 1662 1546 1524 1543 1556 1575 1588 1413 1229 945 686 537 427 358 325 293 183 34 2 6 9 5 3 13 8 2 1 0 0 0 0 0 0 0 0 0 0 0 0 0 0 0 0 1
1204 1316 1404 1446 1447 1392 1319 1219 1156 1115 1146 1159 1130 1097 1061 1037 1102 1154 1221 1292 1325 1356 1402 1484 1697 1701 1804 1840 1822 1832 1806 1849 1985 2117 2090 2114 1978 1893 1894 1841 1755 1713 1659 1612 1624 1587 1576 1576 1476 1204 977 678 452 434 403 364 246 146 69 6 5 5 8 6 13 17 7 2 0 0 0 0 0 0 1 6 4 7 2 0 0 0 0 2 1
1101 1194 1294 1320 1354 1391 1342 1281 1200 1164 1183 1178 1159 1136 1123 1086 1152 1259 1317 1345 1380 1396 1400 1445 1552 1649 1766 1820 1860 1922 1905 1828 1954 2098 2162 2172 1992 1820 1739 1663 1655 1653 1672 1683 1628 1609 1596 1616 1508 1317 1012 729 374 338 415 413 328 126 38 18 12 6 4 1 7 12 14 1 2 1 0 0 0 1 5 3 0 0 0 0 0 0 0 0 2
1093 1127 1193 1275 1317 1354 1372 1351 1319 1274 1241 1186 1195 1211 1208 1192 1218 1367 1449 1471 1489 1496 1512 1504 1548 1663 1808 1903 1952 2047 2102 1908 1934 2029 2096 2122 1992 1740 1638 1594 1550 1612 1664 1700 1669 1619 1622 1597 1530 1313 1095 748 443 263 309 405 354 214 115 67 11 7 3 1 0 4 8 6 1 0 0 0 4 2 1 0 0 0 0 0 0 0 1 4 4
1062 1095 1134 1164 1219 1243 1258 1215 1203 1222 1224 1191 1157 1194 1226 1247 1281 1355 1484 1573 1596 1616 1604 1616 1671 1780 1912 2007 2006 2083 2175 2135 1948 1916 1941 1972 1877 1711 1662 1574 1540 1571 1637 1686 1666 1644 1612 1595 1562 1424 1174 897 573 279 272 324 328 230 152 101 51 0 0 0 0 0 0 5 4 0 0 2 2 0 0 0 0 0 0 0 0 4 2 7 0
1039 1076 1113 1130 1149 1130 974 876 889 892 1023 1025 1033 1121 1208 1260 1305 1366 1448 1539 1616 1654 1675 1694 1759 1840 1927 1980 1986 2024 2093 2106 2034 1859 1816 1809 1807 1686 1628 1609 1572 1564 1616 1663 1716 1658 1636 1601 1561 1454 1306 1021 748 377 258 250 248 160 121 112 69 0 0 0 0 0 1 7 12 8 8 2 0 0 0 0 0 1 8 16 12 8 10 4 0
1121 1136 1154 1178 1201 1120 997 865 757 793 884 924 910 943 1179 1262 1331 1392 1453 1518 1566 1583 1601 1613 1626 1671 1765 1830 1863 1922 1984 2021 1961 1927 1931 1963 2022 1846 1531 1560 1580 1577 1635 1693 1719 1718 1664 1613 1546 1510 1395 1126 936 650 328 258 212 193 136 101 60 0 0 0 0 0 0 0 2 5 3 2 1 0 0 0 0 1 4 6 8 5 3 3 2
1158 1241 1282 1276 1235 1146 1076 994 854 835 890 959 1002 993 1072 1148 1297 1406 1509 1526 1538 1535 1535 1532 1521 1512 1584 1695 1772 1851 1924 1950 1954 1982 2086 2165 2148 1986 1662 1484 1523 1564 1596 1647 1728 1744 1719 1648 1575 1512 1446 1314 1150 958 620 250 249 247 190 0 0 0 0 0 0 0 0 0 0 2 4 6 9 2 0 0 2 5 1 9 10 6 8 4 1
1157 1221 1270 1280 1245 1180 1128 1101 1001 897 877 884 891 1060 1090 1110 1233 1344 1410 1464 1572 1571 1574 1567 1571 1537 1531 1618 1721 1796 1835 1891 1932 1974 2094 2173 2165 2028 1812 1607 1510 1507 1520 1471 1528 1677 1741 1691 1584 1503 1471 1352 1238 1029 809 350 208 192 239 196 76 63 10 0 19 0 0 0 0 6 18 22 21 15 5 1 12 15 12 12 7 4 6 2 4
1161 1142 1124 1150 1144 1097 1070 1060 1050 947 838 883 882 982 1131 1168 1226 1368 1379 1475 1550 1570 1579 1577 1563 1546 1533 1552 1622 1706 1780 1859 1890 1930 2010 2072 2071 2032 1867 1696 1567 1482 1475 1510 1469 1419 1510 1620 1568 1550 1504 1430 1281 1199 1046 580 361 207 0 161 190 135 130 115 79 6 5 0 0 2 10 13 24 34 32 29 29 24 15 6 2 0 6 8 3
1116 1061 1010 995 1001 995 925 891 925 970 903 821 877 937 1130 1214 1242 1357 1429 1459 1503 1515 1520 1536 1540 1548 1552 1563 1596 1635 1675 1709 1772 1840 1903 1971 1998 1972 1870 1738 1634 1550 1468 1557 1635 1665 1645 1622 1581 1544 1505 1384 1316 1261 1133 676 465 336 133 0 0 65 49 141 106 89 70 58 31 12 16 8 9 19 28 28 32 28 13 2 2 4 4 2 0
1080 989 929 885 840 822 820 802 821 872 902 890 822 828 1021 1243 1318 1454 1493 1490 1460 1472 1504 1524 1530 1544 1576 1585 1601 1621 1599 1576 1609 1667 1731 1820 1879 1897 1843 1762 1658 1575 1546 1592 1642 1698 1760 1786 1807 1733 1653 1571 1498 1398 1119 819 586 468 323 108 0 0 0 73 80 94 96 74 42 21 11 3 0 3 0 2 1 1 2 2 1 8 2 0 0
1112 992 900 809 751 714 730 737 750 788 834 874 911 921 969 1129 1383 1422 1510 1516 1468 1489 1511 1539 1569 1585 1589 1610 1616 1612 1620 1619 1597 1586 1606 1654 1732 1786 1773 1728 1698 1680 1617 1597 1629 1670 1721 1753 1799 1831 1801 1725 1665 1526 1324 1037 633 493 402 323 125 0 0 0 28 92 82 11 0 18 8 0 0 0 0 0 0 0 2 13 18 28 5 1 0
1243 1129 979 852 736 692 669 666 675 722 782 818 874 933 947 905 1067 1289 1459 1471 1574 1594 1563 1604 1642 1675 1690 1661 1641 1625 1621 1638 1663 1662 1658 1643 1623 1635 1644 1671 1698 1722 1740 1584 1597 1652 1696 1699 1680 1709 1764 1775 1730 1614 1485 1005 701 488 438 376 288 80 0 0 57 84 49 0 0 0 0 0 0 0 0 0 0 0 8 22 10 3 4 3 6
1295 1230 1128 1007 822 737 670 627 616 632 660 736 802 858 929 964 960 1143 1283 1424 1673 1718 1714 1684 1680 1718 1763 1771 1737 1726 1730 1752 1741 1713 1673 1622 1560 1508 1525 1586 1663 1744 1792 1684 1550 1559 1647 1700 1681 1669 1655 1725 1742 1723 1599 1342 1092 720 424 316 271 0 0 0 0 12 46 2 5 10 0 0 0 0 0 0 0 0 0 3 4 2 2 7 8
1210 1180 1126 1042 904 773 676 619 608 612 662 722 770 818 874 930 942 914 1015 1263 1553 1680 1724 1752 1746 1779 1820 1800 1803 1796 1792 1761 1729 1692 1668 1613 1586 1566 1559 1571 1629 1711 1810 1764 1622 1533 1513 1634 1703 1630 1590 1616 1695 1658 1541 1264 1102 853 622 538 382 133 100 1 0 22 57 73 31 2 0 0 0 0 0 0 0 0 0 0 1 2 3 4 4
Wind_Speed
15 14 12 8 8 9 10 8 6 3 6 5 4 1 nan nan nan nan nan nan nan nan nan nan nan nan nan nan nan nan nan nan 13 14 15 17 20 25 28 27 26 27 24 19 11 14 20 19 16 16 12 nan nan nan nan nan nan nan nan nan nan nan nan nan nan nan nan nan nan nan nan nan nan nan nan nan nan nan nan nan nan nan nan nan nan
15 13 10 8 9 10 8 6 5 3 4 4 3 3 nan nan nan nan nan nan nan nan nan nan nan nan nan nan nan nan nan 13 13 13 14 16 19 22 27 26 25 25 18 11 13 15 17 14 15 15 nan nan nan nan nan nan nan nan nan nan nan nan nan nan nan nan nan nan nan nan nan nan nan nan nan nan nan nan nan nan nan nan nan nan nan
15 12 12 10 9 8 5 5 4 3 4 3 4 nan nan nan nan nan nan nan nan nan nan nan nan nan nan nan nan nan 9 10 11 12 14 16 17 19 22 25 26 25 17 16 15 11 15 14 15 14 11 nan nan nan nan nan nan nan nan nan nan nan nan nan nan nan nan nan nan nan nan nan nan nan nan nan nan nan nan nan nan nan nan nan nan
17 12 14 12 9 8 5 4 nan 4 4 nan 4 nan nan nan nan nan nan nan nan nan nan nan nan nan nan nan nan 4 7 9 10 11 13 15 15 17 18 20 24 25 22 20 17 14 12 14 14 13 nan nan nan nan nan nan nan nan nan nan nan nan nan nan nan nan nan nan nan nan nan nan nan nan nan nan nan nan nan nan nan nan nan nan nan
19 14 16 14 11 9 5 nan nan nan nan nan nan nan nan nan nan nan nan nan nan nan nan nan nan nan nan nan 1 3 6 8 9 10 12 14 16 17 16 18 20 22 23 21 18 18 14 11 6 11 nan nan nan nan nan nan nan nan nan nan nan nan nan nan nan nan nan nan nan nan nan nan nan nan nan nan nan nan nan nan nan nan nan nan nan
24 20 19 14 12 9 4 nan nan nan nan nan nan nan nan nan nan nan 7 nan nan nan nan nan nan nan nan nan 2 4 6 7 8 9 11 14 15 16 16 14 15 17 18 20 18 16 16 11 10 11 10 nan nan nan nan nan nan nan nan nan nan nan nan nan nan nan nan nan nan nan nan nan nan nan nan nan nan nan nan nan nan nan nan nan nan
29 21 21 15 12 10 5 nan nan 6 6 nan nan nan nan nan nan nan nan nan nan nan nan nan nan nan nan nan 4 4 6 7 8 8 11 12 13 15 16 15 15 16 16 16 14 14 15 13 6 10 13 nan nan nan nan nan nan nan nan nan nan nan nan nan nan nan nan nan nan nan nan nan nan nan nan nan nan nan nan nan nan nan nan nan nan
31 22 21 17 13 10 6 5 4 6 nan nan nan nan nan nan nan nan nan nan nan nan nan nan nan nan nan nan 6 6 6 8 8 8 10 11 11 14 16 15 15 17 16 15 16 17 21 15 13 12 14 nan nan nan nan nan nan nan nan nan nan nan nan nan nan nan nan nan nan nan nan nan nan nan nan nan nan nan nan nan nan nan nan nan nan
31 24 21 18 15 12 9 5 6 6 nan nan nan nan nan nan nan nan nan nan nan nan nan nan nan nan nan nan 8 6 6 7 8 8 9 9 11 13 14 15 14 18 15 15 15 14 14 17 17 14 13 13 nan nan nan nan nan nan nan nan nan nan nan nan nan nan nan nan nan nan nan nan nan nan nan nan nan nan nan nan nan nan nan nan nan
25 26 23 19 17 13 10 7 6 7 9 nan nan nan nan nan nan nan nan nan nan nan nan nan nan nan nan nan nan 4 5 6 5 7 8 9 10 12 14 14 14 13 15 15 15 14 14 18 19 17 16 16 nan nan nan nan nan nan nan nan nan nan nan nan nan nan nan nan nan nan nan nan nan nan nan nan nan nan nan nan nan nan nan nan nan
23 26 25 21 18 14 10 8 7 8 10 7 nan nan nan nan nan nan nan nan nan nan nan nan nan nan nan nan nan 2 2 3 3 4 5 7 9 10 12 14 13 13 14 14 14 14 13 14 14 15 15 nan nan nan nan nan nan nan nan nan nan nan nan nan nan nan nan nan nan nan nan nan nan nan nan nan nan nan nan nan nan nan nan nan nan
23 28 27 22 20 15 11 10 9 10 9 7 nan nan nan nan nan nan nan nan nan nan nan nan nan nan 1 2 2 1 3 3 3 2 2 6 7 9 11 12 12 12 12 13 14 13 15 15 14 14 13 14 nan nan nan nan nan nan nan nan nan nan nan nan nan nan nan nan nan nan nan nan nan nan nan nan nan nan nan nan nan nan nan nan nan
24 28 28 22 20 17 13 12 11 10 9 7 7 nan nan nan nan nan nan nan nan nan nan nan nan nan nan 4 4 4 2 3 3 3 2 4 6 7 9 11 12 12 11 12 14 14 14 14 14 15 14 16 nan nan nan nan nan nan nan nan nan nan nan nan nan nan nan nan nan nan nan nan nan nan nan nan nan nan nan nan nan nan nan nan nan
21 26 31 24 21 19 14 12 13 12 10 10 11 nan nan nan nan nan nan nan nan nan nan nan nan nan nan nan 3 3 1 2 3 4 4 3 5 7 9 10 10 11 10 11 12 12 13 14 15 15 15 16 nan nan nan nan nan nan nan nan nan nan nan nan nan nan nan nan nan nan nan nan nan nan nan nan nan nan nan nan nan nan nan nan nan
20 23 28 26 23 20 16 15 14 14 13 13 12 10 nan 8 nan nan nan 12 9 nan nan nan nan nan nan nan nan nan 3 1 2 4 4 3 4 7 8 10 10 9 10 10 11 12 13 14 14 14 15 15 nan nan nan nan nan nan nan nan nan nan nan nan nan nan nan nan nan nan nan nan nan nan nan nan nan nan nan nan nan nan nan nan nan
22 22 23 25 23 21 19 17 17 16 14 15 14 12 14 13 11 10 11 11 10 8 nan nan nan nan nan nan nan nan nan 4 2 2 2 4 4 6 7 9 9 9 10 11 11 11 10 12 15 15 15 14 14 nan nan nan nan nan nan nan nan nan nan nan nan nan nan nan nan nan nan nan nan nan nan nan nan nan nan nan nan nan nan nan nan
26 24 22 24 24 22 20 18 19 18 16 17 17 15 14 13 13 13 11 11 9 9 nan nan nan nan nan nan nan nan nan 4 3 2 0 2 3 5 7 8 8 9 10 11 11 11 11 11 13 13 14 15 nan nan nan nan nan nan nan nan nan nan nan nan nan nan nan nan nan nan nan nan nan nan nan nan nan nan nan nan nan nan nan nan nan
30 28 22 25 26 22 21 20 20 20 18 18 19 19 17 16 15 14 12 11 9 8 nan nan nan nan nan nan nan nan 1 2 2 4 1 2 3 5 6 6 6 9 9 10 11 12 12 12 12 13 12 13 13 nan nan nan nan nan nan nan nan nan nan nan nan nan nan nan nan nan nan nan nan nan nan nan nan nan nan nan nan nan nan nan nan
32 30 23 23 28 25 22 22 21 22 20 21 21 20 19 16 18 18 14 12 11 7 6 4 8 5 4 nan nan 3 nan 7 4 3 4 3 4 4 4 6 8 10 11 12 11 12 12 12 12 12 10 11 12 12 nan nan nan nan nan nan nan nan nan nan nan nan nan nan nan nan nan nan nan nan nan nan nan nan nan nan nan nan nan nan nan
33 32 25 25 30 29 25 24 23 23 22 21 22 24 24 20 19 18 17 13 10 8 7 7 4 6 7 4 nan nan nan 4 6 8 7 8 6 4 5 6 7 8 10 11 11 11 12 11 11 12 11 13 13 12 12 nan nan nan nan nan nan nan nan nan nan nan nan nan nan nan nan nan nan nan nan nan nan nan nan nan nan nan nan nan nan
32 31 26 25 29 30 27 26 25 25 23 23 27 27 24 23 20 19 18 16 12 11 11 7 7 4 8 9 9 7 8 7 5 3 6 7 5 8 8 6 5 5 7 10 11 11 11 11 12 13 12 13 11 11 12 12 nan nan nan nan nan nan nan nan nan nan nan nan nan nan nan nan nan nan nan nan nan nan nan nan nan nan nan nan nan
33 33 30 29 31 32 29 27 26 26 26 25 28 29 27 24 20 18 18 16 14 12 10 10 8 7 8 10 11 12 10 8 5 4 2 3 6 9 10 12 11 7 6 9 10 11 11 10 11 13 13 14 13 nan nan nan nan nan nan nan nan nan nan nan nan nan nan nan nan nan nan nan nan nan nan nan nan nan nan nan nan nan nan nan nan
37 37 33 30 30 33 31 29 30 29 28 28 29 30 29 26 22 19 19 16 14 12 13 13 12 11 9 10 8 9 8 7 5 4 6 5 4 4 6 8 8 9 7 9 9 9 10 9 11 13 13 14 14 13 nan nan nan nan nan nan nan nan nan nan nan nan nan nan nan nan nan nan nan nan nan nan nan nan nan nan nan nan nan nan nan
38 38 36 31 32 35 34 33 32 31 29 29 30 31 29 26 24 20 19 17 14 14 15 14 14 12 9 10 9 9 8 7 6 6 7 6 8 7 8 9 9 7 8 9 8 9 10 10 10 12 13 14 14 14 14 nan nan nan nan nan nan nan nan nan nan nan nan nan nan nan nan nan nan nan nan nan nan nan nan nan nan nan nan nan nan
35 34 35 33 34 36 37 34 32 31 30 29 31 32 30 26 24 20 20 18 15 15 16 14 14 12 9 9 10 11 8 8 9 6 5 9 10 9 6 7 10 10 9 10 9 9 11 10 11 12 14 15 nan 15 16 nan nan nan nan nan nan nan nan nan nan nan nan nan nan nan nan nan nan nan nan nan nan nan nan nan nan nan nan nan nan
38 33 34 34 34 35 36 34 33 33 33 31 33 34 31 27 25 22 19 20 19 16 16 15 14 12 13 11 11 11 10 11 10 9 9 10 9 11 11 9 11 11 10 9 11 11 11 11 11 13 15 16 16 16 18 18 19 nan nan nan nan nan nan nan nan nan nan nan nan nan nan nan nan nan nan nan nan nan nan nan nan nan nan nan nan
47 43 38 35 34 36 38 38 38 37 36 34 35 36 33 28 27 24 22 22 20 19 17 16 15 15 13 12 12 13 12 13 12 9 10 9 10 12 14 14 11 11 12 11 11 11 12 12 13 13 15 17 17 17 18 19 21 nan nan nan nan nan nan nan nan nan nan nan nan nan nan nan nan nan nan nan nan nan nan nan nan nan nan nan nan
50 48 43 38 36 36 38 38 40 39 38 37 36 37 35 31 30 28 24 25 23 20 19 16 14 15 14 13 14 12 14 14 12 11 10 9 11 14 14 14 16 13 12 12 12 11 16 14 13 15 16 18 18 18 21 nan 22 nan 26 nan nan nan nan nan nan nan nan nan nan nan nan nan nan nan nan nan nan nan nan nan nan nan nan nan nan
42 40 40 38 38 37 37 39 41 41 39 38 37 37 37 34 33 31 28 27 25 22 22 18 15 17 17 15 13 14 14 14 13 12 11 11 12 14 15 15 15 15 14 13 13 14 15 16 15 17 18 18 18 19 21 22 24 26 23 nan nan nan nan nan nan nan nan nan nan nan nan nan nan nan nan nan nan nan nan nan nan nan nan nan nan
46 42 40 37 38 37 37 39 44 44 41 41 39 38 38 37 35 34 32 31 26 26 24 21 18 19 18 17 16 15 16 16 13 13 12 12 14 14 16 15 16 16 15 14 13 16 15 15 16 17 18 19 19 20 20 22 26 27 22 nan nan nan nan nan nan nan nan nan nan nan nan nan nan nan nan nan nan nan nan nan nan nan nan nan nan
44 43 41 39 38 38 37 39 46 46 45 44 42 41 39 37 38 37 36 33 29 25 25 24 21 20 19 18 17 16 17 15 15 15 13 14 13 15 16 18 16 16 18 16 13 11 16 16 16 17 18 20 20 20 20 21 25 26 21 nan nan nan nan nan nan nan nan nan nan nan nan nan nan nan nan nan nan nan nan nan nan nan nan nan nan
43 41 41 39 39 38 38 43 50 50 46 46 44 42 41 39 40 40 38 34 29 25 26 27 25 21 20 19 18 18 18 18 17 16 15 14 15 16 17 18 18 18 19 19 16 14 16 15 16 18 20 20 20 22 23 22 24 nan nan nan nan nan nan nan nan nan nan nan nan nan nan nan nan nan nan nan nan nan nan nan nan nan nan nan nan
43 42 40 38 37 36 34 40 52 52 45 45 46 45 42 41 42 40 39 35 29 28 29 28 24 22 21 21 20 19 21 20 18 18 17 17 18 17 18 20 19 20 21 20 18 17 15 13 16 17 20 21 20 22 23 23 24 nan nan nan nan nan nan nan nan nan nan nan nan nan nan nan nan nan nan nan nan nan nan nan nan nan nan nan nan
43 42 42 39 37 36 34 35 45 50 46 43 47 48 44 42 43 43 38 34 31 29 30 27 25 24 24 22 20 21 22 21 21 21 19 20 20 20 19 20 19 19 18 21 20 22 19 18 18 18 20 22 21 22 24 25 25 nan nan nan nan nan nan nan nan nan nan nan nan nan nan nan nan nan nan nan nan nan nan nan nan nan nan nan nan
45 43 43 41 38 37 38 37 40 46 45 44 46 47 46 45 43 41 38 35 33 31 28 27 27 26 25 23 22 24 25 24 23 23 23 21 22 22 21 20 19 19 19 20 23 22 23 20 21 22 22 22 22 23 24 24 26 27 nan nan nan nan nan nan nan nan nan nan nan nan nan nan nan nan nan nan nan nan nan nan nan nan nan nan nan
46 44 43 42 40 38 38 38 38 39 42 45 46 46 46 47 45 41 39 37 35 32 28 28 28 28 26 25 24 26 27 26 27 27 24 24 24 23 23 21 20 20 19 20 20 24 22 25 22 24 24 25 22 23 23 23 25 26 nan nan nan nan nan nan nan nan nan nan nan nan nan nan nan nan nan nan nan nan nan nan nan nan nan nan nan
46 45 43 43 41 38 37 37 38 36 37 42 46 47 48 49 46 43 40 39 37 33 30 28 29 29 29 26 29 30 28 27 29 29 27 26 25 25 25 25 22 21 20 19 21 23 25 24 26 25 27 26 25 26 25 25 24 24 nan nan nan nan nan nan nan nan nan nan nan nan nan nan nan nan nan nan nan nan nan nan nan nan nan nan nan
46 45 43 42 41 38 37 37 38 38 37 39 46 50 51 51 49 44 41 40 38 35 32 29 29 32 33 32 33 32 28 26 28 29 29 27 28 26 26 28 27 26 22 20 21 23 25 25 28 28 29 30 28 27 27 25 27 26 nan nan nan nan nan nan nan nan nan nan nan nan nan nan nan nan nan nan nan nan nan nan nan nan nan nan nan
47 45 43 42 43 41 38 38 37 38 37 38 45 53 55 52 49 44 41 38 37 36 34 31 30 34 38 38 36 32 27 27 29 30 30 29 28 26 26 29 32 31 26 24 23 24 26 26 25 27 29 29 30 30 28 27 27 27 28 nan nan nan nan nan nan nan nan nan nan nan nan nan nan nan nan nan nan nan nan nan nan nan nan nan nan
48 46 44 43 45 44 41 40 40 41 40 39 44 54 58 54 50 47 42 37 35 36 35 33 34 37 41 42 37 32 28 30 31 31 31 31 30 28 27 30 33 33 31 28 26 26 26 26 26 27 27 29 30 29 31 29 28 26 27 30 nan nan nan nan nan nan nan nan nan nan nan nan nan nan nan nan nan nan nan nan nan nan nan nan nan
51 49 48 47 49 52 55 56 55 55 54 48 47 54 59 56 53 50 45 38 37 37 36 35 37 39 44 44 39 34 31 32 31 30 28 30 33 32 31 31 33 32 33 30 28 28 27 27 26 26 27 28 29 32 32 31 30 30 30 30 nan nan nan nan nan nan nan nan nan nan nan nan nan nan nan nan nan nan nan nan nan nan nan nan nan
53 53 52 50 50 51 50 50 49 51 48 46 47 53 62 61 57 56 50 42 40 39 37 37 40 42 45 45 40 34 31 31 31 27 24 26 30 33 35 33 33 32 32 32 30 29 29 28 27 28 26 26 29 30 32 29 30 31 33 32 nan nan nan nan nan nan nan nan nan nan nan nan nan nan nan nan nan nan nan nan nan nan nan nan nan
56 56 55 53 54 55 54 50 48 47 44 41 33 35 45 52 58 57 52 45 43 41 39 40 42 45 48 46 41 36 33 32 30 25 23 24 27 30 35 35 35 33 33 31 29 29 31 29 29 29 26 27 29 31 31 32 32 32 32 nan nan nan nan nan nan nan nan nan nan nan nan nan nan nan nan nan nan nan nan nan nan nan nan nan nan
58 58 56 55 56 57 56 51 47 46 44 43 38 35 40 47 54 55 52 47 45 43 42 42 45 49 49 46 43 40 37 34 33 30 27 26 26 28 31 32 33 32 34 33 31 29 29 31 32 29 30 29 31 33 34 36 35 33 32 33 nan nan nan nan nan nan nan nan nan nan nan nan nan nan nan nan nan nan nan nan nan nan nan nan nan
59 57 56 58 58 57 55 50 47 46 44 41 39 37 39 44 49 52 53 48 44 42 42 43 46 49 49 46 44 42 40 35 34 33 33 33 31 29 30 31 31 32 32 32 34 32 32 31 31 30 31 33 33 34 37 38 38 36 nan 33 34 34 34 33 nan nan nan nan nan nan nan nan nan nan nan nan nan nan nan nan nan nan nan nan nan
60 59 59 58 60 58 54 51 48 46 44 43 40 38 37 37 42 50 53 50 45 42 41 43 47 49 48 46 44 42 41 40 37 35 35 36 38 38 35 32 31 29 30 32 33 34 36 34 33 31 30 33 32 33 37 41 42 38 36 nan nan nan nan 33 35 nan nan nan nan nan nan nan nan nan nan nan nan nan nan nan nan nan nan nan nan
59 59 59 60 59 57 54 52 50 48 47 42 40 38 37 36 37 45 52 51 47 44 43 45 48 50 49 47 44 42 43 41 40 38 38 39 40 39 36 32 30 31 33 33 34 35 35 34 35 33 34 32 30 34 39 40 39 37 37 37 nan nan nan nan nan nan nan nan nan nan nan nan nan nan nan nan nan nan nan nan nan nan nan nan nan
62 62 63 63 60 57 55 52 52 50 48 42 40 39 37 36 42 48 51 50 48 46 46 47 50 53 50 47 45 45 43 41 39 38 39 42 41 38 35 33 31 31 31 30 33 35 36 37 36 36 36 37 35 39 41 39 36 35 36 36 37 nan nan nan nan nan nan nan nan nan nan nan nan nan nan nan nan nan nan nan nan nan nan nan nan
62 63 64 63 61 58 55 52 50 48 47 44 40 39 38 38 47 47 47 49 50 48 48 50 53 55 53 49 47 46 45 42 41 41 41 45 40 37 34 34 34 34 31 33 34 32 31 32 35 37 41 44 46 47 46 43 39 39 37 36 36 nan nan nan nan nan nan nan nan nan nan nan nan nan nan nan nan nan nan nan nan nan nan nan nan
60 61 63 63 61 58 55 52 49 47 46 45 40 38 38 42 45 44 44 47 49 49 51 54 56 56 53 47 48 48 46 43 43 44 44 45 40 37 36 36 37 35 32 36 39 37 35 34 36 39 41 43 46 46 44 41 42 43 38 35 36 nan nan nan nan nan nan nan nan nan nan nan nan nan nan nan nan nan nan nan nan nan nan nan nan
59 61 64 63 60 58 55 51 46 44 45 45 41 39 40 45 45 44 43 46 50 50 50 52 54 55 54 52 46 46 45 42 45 46 45 44 40 39 40 42 39 36 33 38 39 40 41 38 35 38 37 38 41 41 37 37 37 36 33 34 38 38 nan nan nan nan nan nan nan nan nan nan nan nan nan nan nan nan nan nan nan nan nan nan nan
Wind_Direction
221 233 240 250 272 284 289 298 298 271 255 285 309 184 nan nan nan nan nan nan nan nan nan nan nan nan nan nan nan nan nan nan 354 352 357 358 356 355 352 357 6 8 15 360 350 12 8 16 1 357 359 nan nan nan nan nan nan nan nan nan nan nan nan nan nan nan nan nan nan nan nan nan nan nan nan nan nan nan nan nan nan nan nan nan nan
220 230 241 243 262 269 283 299 298 272 252 289 261 225 nan nan nan nan nan nan nan nan nan nan nan nan nan nan nan nan nan 353 351 354 359 357 356 355 354 359 6 11 3 331 2 10 16 10 16 1 nan nan nan nan nan nan nan nan nan nan nan nan nan nan nan nan nan nan nan nan nan nan nan nan nan nan nan nan nan nan nan nan nan nan nan
217 231 237 245 258 267 278 292 291 278 257 275 241 nan nan nan nan nan nan nan nan nan nan nan nan nan nan nan nan nan 352 354 350 351 355 357 356 356 358 360 7 7 346 347 8 4 11 12 37 8 15 nan nan nan nan nan nan nan nan nan nan nan nan nan nan nan nan nan nan nan nan nan nan nan nan nan nan nan nan nan nan nan nan nan nan
222 229 240 243 253 259 254 287 nan 257 265 nan 245 nan nan nan nan nan nan nan nan nan nan nan nan nan nan nan nan 350 353 351 350 351 356 357 357 357 359 5 9 6 354 357 2 8 27 26 29 20 nan nan nan nan nan nan nan nan nan nan nan nan nan nan nan nan nan nan nan nan nan nan nan nan nan nan nan nan nan nan nan nan nan nan nan
223 228 235 234 247 251 237 nan nan nan nan nan nan nan nan nan nan nan nan nan nan nan nan nan nan nan nan nan 340 350 351 348 349 351 357 358 359 357 357 4 12 11 359 1 12 22 23 35 14 33 nan nan nan nan nan nan nan nan nan nan nan nan nan nan nan nan nan nan nan nan nan nan nan nan nan nan nan nan nan nan nan nan nan nan nan
218 217 230 231 234 236 216 nan nan nan nan nan nan nan nan nan nan nan 203 nan nan nan nan nan nan nan nan nan 355 2 343 344 352 354 357 356 357 352 355 3 12 16 13 3 15 24 17 23 23 25 10 nan nan nan nan nan nan nan nan nan nan nan nan nan nan nan nan nan nan nan nan nan nan nan nan nan nan nan nan nan nan nan nan nan nan
212 211 224 231 234 221 200 nan nan 245 248 nan nan nan nan nan nan nan nan nan nan nan nan nan nan nan nan nan 17 9 335 337 347 356 358 354 353 349 354 2 10 16 16 15 14 33 37 13 8 30 15 nan nan nan nan nan nan nan nan nan nan nan nan nan nan nan nan nan nan nan nan nan nan nan nan nan nan nan nan nan nan nan nan nan nan
211 205 218 223 229 217 189 207 231 250 nan nan nan nan nan nan nan nan nan nan nan nan nan nan nan nan nan nan 26 12 347 332 347 357 358 352 348 349 355 0 11 19 14 13 18 26 39 9 1 31 11 nan nan nan nan nan nan nan nan nan nan nan nan nan nan nan nan nan nan nan nan nan nan nan nan nan nan nan nan nan nan nan nan nan nan
215 201 210 219 219 213 202 201 232 246 nan nan nan nan nan nan nan nan nan nan nan nan nan nan nan nan nan nan 31 14 347 336 343 354 351 348 345 350 358 4 6 19 13 10 20 34 23 22 15 25 12 9 nan nan nan nan nan nan nan nan nan nan nan nan nan nan nan nan nan nan nan nan nan nan nan nan nan nan nan nan nan nan nan nan nan
231 208 203 211 208 207 208 206 224 235 230 nan nan nan nan nan nan nan nan nan nan nan nan nan nan nan nan nan nan 9 336 323 333 349 351 343 348 354 359 1 6 11 14 13 17 25 27 28 17 27 17 14 nan nan nan nan nan nan nan nan nan nan nan nan nan nan nan nan nan nan nan nan nan nan nan nan nan nan nan nan nan nan nan nan nan
256 228 206 200 199 199 207 212 218 223 230 242 nan nan nan nan nan nan nan nan nan nan nan nan nan nan nan nan nan 18 315 295 315 346 347 341 348 355 354 360 1 2 13 15 16 17 22 31 31 34 29 nan nan nan nan nan nan nan nan nan nan nan nan nan nan nan nan nan nan nan nan nan nan nan nan nan nan nan nan nan nan nan nan nan nan
268 244 214 194 191 191 196 215 215 218 232 248 nan nan nan nan nan nan nan nan nan nan nan nan nan nan 153 155 162 177 265 274 285 296 316 334 348 356 353 356 356 353 5 15 16 17 17 25 26 28 22 15 nan nan nan nan nan nan nan nan nan nan nan nan nan nan nan nan nan nan nan nan nan nan nan nan nan nan nan nan nan nan nan nan nan
271 241 212 193 188 187 191 208 213 215 226 241 248 nan nan nan nan nan nan nan nan nan nan nan nan nan nan 171 163 187 246 282 270 244 267 317 351 356 349 352 353 347 358 12 13 10 16 19 22 16 17 21 nan nan nan nan nan nan nan nan nan nan nan nan nan nan nan nan nan nan nan nan nan nan nan nan nan nan nan nan nan nan nan nan nan
268 230 203 189 186 185 188 203 214 215 222 225 230 nan nan nan nan nan nan nan nan nan nan nan nan nan nan nan 146 136 234 274 276 252 258 288 331 345 339 345 346 342 350 9 5 3 9 14 17 15 11 18 nan nan nan nan nan nan nan nan nan nan nan nan nan nan nan nan nan nan nan nan nan nan nan nan nan nan nan nan nan nan nan nan nan
256 232 205 189 181 184 187 200 208 218 225 226 225 223 nan 218 nan nan nan 205 201 nan nan nan nan nan nan nan nan nan 68 1 333 262 259 290 313 319 318 328 341 343 348 4 1 2 7 12 11 14 13 10 nan nan nan nan nan nan nan nan nan nan nan nan nan nan nan nan nan nan nan nan nan nan nan nan nan nan nan nan nan nan nan nan nan
251 244 218 198 186 181 190 200 205 215 229 229 224 219 226 221 207 200 210 203 211 210 nan nan nan nan nan nan nan nan nan 44 34 20 307 296 302 307 308 312 328 342 346 352 353 354 1 9 6 11 10 6 8 nan nan nan nan nan nan nan nan nan nan nan nan nan nan nan nan nan nan nan nan nan nan nan nan nan nan nan nan nan nan nan nan
252 249 232 209 192 184 191 201 207 213 226 228 224 220 227 227 215 208 217 214 206 221 nan nan nan nan nan nan nan nan nan 27 357 31 272 305 281 302 304 308 323 335 340 339 343 346 351 0 5 4 3 1 nan nan nan nan nan nan nan nan nan nan nan nan nan nan nan nan nan nan nan nan nan nan nan nan nan nan nan nan nan nan nan nan nan
255 255 245 218 197 187 193 203 209 214 222 226 224 222 224 230 222 213 215 215 219 234 nan nan nan nan nan nan nan nan 328 346 328 46 92 327 303 302 306 306 331 336 334 334 340 339 343 349 355 358 355 354 359 nan nan nan nan nan nan nan nan nan nan nan nan nan nan nan nan nan nan nan nan nan nan nan nan nan nan nan nan nan nan nan nan
255 257 257 229 202 191 197 204 209 215 219 224 222 226 231 233 228 220 213 219 225 228 235 212 210 198 245 nan nan 258 nan 307 10 320 39 31 330 312 313 321 327 343 347 339 338 336 338 339 345 346 334 339 348 352 nan nan nan nan nan nan nan nan nan nan nan nan nan nan nan nan nan nan nan nan nan nan nan nan nan nan nan nan nan nan nan
249 253 255 238 210 192 197 206 210 215 220 219 221 228 233 233 236 228 218 214 227 239 234 239 231 200 234 255 nan nan nan 294 334 3 5 6 10 317 317 319 330 339 343 341 342 341 334 342 339 332 326 333 341 349 339 nan nan nan nan nan nan nan nan nan nan nan nan nan nan nan nan nan nan nan nan nan nan nan nan nan nan nan nan nan nan
247 248 251 248 220 196 194 204 210 217 219 217 222 232 238 240 243 237 225 207 213 229 238 237 244 227 243 236 249 255 248 251 276 303 349 347 12 349 346 319 323 331 335 338 341 343 338 345 340 329 324 329 335 334 334 332 nan nan nan nan nan nan nan nan nan nan nan nan nan nan nan nan nan nan nan nan nan nan nan nan nan nan nan nan nan
245 245 245 245 225 201 194 200 207 217 220 219 225 233 237 240 245 245 233 215 208 229 243 239 241 238 247 251 248 244 241 242 252 273 277 332 5 4 355 343 347 347 324 331 334 338 339 336 331 328 329 329 330 nan nan nan nan nan nan nan nan nan nan nan nan nan nan nan nan nan nan nan nan nan nan nan nan nan nan nan nan nan nan nan nan
245 245 246 245 228 205 196 200 206 214 220 222 225 234 239 241 244 245 239 226 213 225 237 239 242 242 245 252 260 265 273 284 312 328 320 329 321 349 335 341 332 335 341 324 328 322 333 330 325 328 330 331 331 329 nan nan nan nan nan nan nan nan nan nan nan nan nan nan nan nan nan nan nan nan nan nan nan nan nan nan nan nan nan nan nan
247 247 245 241 230 214 200 199 207 213 219 222 225 233 240 243 245 247 239 229 219 228 238 242 247 240 240 245 248 254 259 271 286 316 328 336 334 343 326 328 314 317 320 320 330 323 324 329 327 323 323 329 329 324 325 nan nan nan nan nan nan nan nan nan nan nan nan nan nan nan nan nan nan nan nan nan nan nan nan nan nan nan nan nan nan
246 250 245 240 235 223 207 200 206 213 219 224 227 236 242 244 247 249 243 235 228 234 238 245 250 250 244 243 246 249 250 257 269 293 306 293 315 301 310 317 325 328 327 328 326 330 322 325 326 319 316 322 nan 321 322 nan nan nan nan nan nan nan nan nan nan nan nan nan nan nan nan nan nan nan nan nan nan nan nan nan nan nan nan nan nan
243 246 244 240 236 228 215 204 204 212 219 222 228 236 242 244 246 249 246 236 232 236 242 247 248 247 245 243 244 245 242 254 265 272 288 292 304 318 310 301 307 322 328 342 328 330 325 327 329 316 316 315 318 316 317 319 319 nan nan nan nan nan nan nan nan nan nan nan nan nan nan nan nan nan nan nan nan nan nan nan nan nan nan nan nan
236 238 239 237 234 229 224 215 207 209 216 220 225 234 239 242 244 246 245 242 240 239 241 250 249 253 250 244 242 242 242 250 258 274 282 303 307 305 308 306 302 313 327 334 336 351 326 327 330 319 323 320 317 319 318 318 319 nan nan nan nan nan nan nan nan nan nan nan nan nan nan nan nan nan nan nan nan nan nan nan nan nan nan nan nan
227 229 231 235 234 231 229 224 215 209 213 219 224 230 236 240 241 243 244 242 245 244 241 247 251 256 254 245 241 239 242 247 255 265 283 294 295 296 306 310 312 323 330 334 337 345 332 333 335 335 333 335 330 328 328 nan 319 nan 323 nan nan nan nan nan nan nan nan nan nan nan nan nan nan nan nan nan nan nan nan nan nan nan nan nan nan
242 242 241 237 235 234 233 228 220 213 213 217 223 228 234 236 240 243 241 241 243 243 241 244 247 255 252 253 244 239 243 246 251 262 276 282 289 296 302 310 314 308 324 337 341 339 336 340 337 346 343 342 336 333 331 330 326 323 318 nan nan nan nan nan nan nan nan nan nan nan nan nan nan nan nan nan nan nan nan nan nan nan nan nan nan
235 237 241 242 240 240 236 228 221 217 215 216 220 226 231 233 237 240 240 241 241 239 239 241 244 251 254 251 243 238 245 253 257 268 276 289 290 295 299 300 303 311 313 323 334 338 336 342 338 341 346 344 340 335 335 335 333 332 323 nan nan nan nan nan nan nan nan nan nan nan nan nan nan nan nan nan nan nan nan nan nan nan nan nan nan
235 235 237 242 242 242 245 235 222 219 218 217 220 222 226 231 235 238 241 242 240 241 240 240 240 247 253 253 248 241 248 253 256 263 271 280 288 289 291 288 298 302 306 312 315 325 336 339 341 338 340 342 341 338 336 338 341 341 332 nan nan nan nan nan nan nan nan nan nan nan nan nan nan nan nan nan nan nan nan nan nan nan nan nan nan
232 235 238 241 240 244 251 240 223 219 221 218 221 223 224 227 233 236 241 243 241 242 243 239 236 243 248 250 250 247 251 252 253 262 271 277 280 282 285 289 291 293 296 301 319 319 330 335 338 336 339 336 337 341 345 340 343 nan nan nan nan nan nan nan nan nan nan nan nan nan nan nan nan nan nan nan nan nan nan nan nan nan nan nan nan
231 232 235 240 240 242 249 234 219 220 222 218 220 223 224 226 230 235 239 242 242 243 245 241 234 238 242 244 248 250 257 260 257 263 267 273 274 274 276 279 284 286 292 296 307 304 305 307 328 328 334 333 336 343 342 342 340 nan nan nan nan nan nan nan nan nan nan nan nan nan nan nan nan nan nan nan nan nan nan nan nan nan nan nan nan
229 231 233 236 238 239 241 234 225 227 225 218 219 222 225 228 230 232 236 240 241 244 247 241 235 231 235 238 243 251 258 263 262 264 266 268 271 270 271 277 282 288 290 291 295 297 306 302 311 316 321 331 333 338 341 341 340 nan nan nan nan nan nan nan nan nan nan nan nan nan nan nan nan nan nan nan nan nan nan nan nan nan nan nan nan
225 227 230 233 237 236 234 233 235 234 230 223 220 222 225 229 231 232 235 239 241 243 247 243 235 233 233 232 239 247 252 259 260 263 266 269 268 271 275 274 279 282 287 288 286 292 298 303 303 310 316 323 329 333 337 339 337 338 nan nan nan nan nan nan nan nan nan nan nan nan nan nan nan nan nan nan nan nan nan nan nan nan nan nan nan
223 224 226 229 233 234 232 232 234 234 232 230 226 222 224 229 231 232 233 237 239 240 245 244 238 235 233 231 235 244 250 257 259 261 266 269 270 270 275 276 276 278 280 283 288 285 290 297 303 306 310 314 315 322 324 329 330 334 nan nan nan nan nan nan nan nan nan nan nan nan nan nan nan nan nan nan nan nan nan nan nan nan nan nan nan
220 221 223 224 227 231 230 230 233 234 233 235 233 226 223 227 231 232 233 235 238 238 241 244 239 236 233 231 235 241 246 252 256 260 265 273 273 274 279 279 278 276 272 280 283 283 288 297 298 298 301 304 303 310 316 319 324 327 nan nan nan nan nan nan nan nan nan nan nan nan nan nan nan nan nan nan nan nan nan nan nan nan nan nan nan
217 219 220 222 223 227 227 227 230 234 236 239 236 229 225 226 229 231 232 233 236 237 239 242 240 236 234 233 235 240 244 250 254 257 262 270 273 277 283 286 284 281 282 281 280 283 288 292 297 295 302 302 299 302 313 314 315 319 nan nan nan nan nan nan nan nan nan nan nan nan nan nan nan nan nan nan nan nan nan nan nan nan nan nan nan
215 216 217 219 221 224 226 227 227 231 236 239 235 229 225 225 228 231 231 230 233 235 237 242 241 235 234 236 237 239 241 245 251 257 259 262 267 276 283 288 289 289 287 286 285 285 285 286 292 298 301 300 299 300 302 309 310 313 320 nan nan nan nan nan nan nan nan nan nan nan nan nan nan nan nan nan nan nan nan nan nan nan nan nan nan
212 213 215 217 220 222 222 223 223 226 231 234 230 225 223 224 226 230 231 227 231 235 235 239 240 234 234 237 239 239 236 240 246 252 258 259 260 267 272 276 284 289 289 287 286 286 285 287 293 298 299 298 297 290 295 300 302 306 314 317 nan nan nan nan nan nan nan nan nan nan nan nan nan nan nan nan nan nan nan nan nan nan nan nan nan
210 211 213 215 219 223 221 222 220 218 216 216 219 219 221 222 225 230 230 225 228 232 231 234 236 232 231 235 238 240 240 242 253 259 264 265 262 265 267 270 276 282 286 287 289 288 287 288 290 292 297 300 300 298 300 307 312 311 306 310 nan nan nan nan nan nan nan nan nan nan nan nan nan nan nan nan nan nan nan nan nan nan nan nan nan
209 211 213 215 219 223 224 224 223 221 220 216 212 203 209 218 224 228 229 225 225 227 227 229 230 227 227 232 236 245 250 253 259 267 273 277 275 271 269 268 271 275 282 286 288 289 290 292 293 298 302 307 307 306 307 308 302 298 302 307 nan nan nan nan nan nan nan nan nan nan nan nan nan nan nan nan nan nan nan nan nan nan nan nan nan
209 211 214 216 220 222 225 225 223 222 220 223 233 228 223 221 223 224 225 223 222 223 224 226 225 223 222 227 232 240 247 253 259 267 265 272 278 275 276 277 275 276 276 280 283 287 292 294 292 296 300 306 306 304 306 302 303 308 304 nan nan nan nan nan nan nan nan nan nan nan nan nan nan nan nan nan nan nan nan nan nan nan nan nan nan
209 212 214 217 221 223 223 223 222 223 220 217 222 228 232 235 235 231 228 225 222 221 223 224 222 221 221 225 230 233 237 246 250 252 254 264 273 275 277 280 280 283 284 284 282 281 285 289 291 298 299 302 303 304 302 301 303 304 306 305 nan nan nan nan nan nan nan nan nan nan nan nan nan nan nan nan nan nan nan nan nan nan nan nan nan
211 212 213 218 221 223 223 221 221 223 221 224 229 227 227 233 239 237 231 232 229 225 226 226 223 220 221 225 229 232 233 240 245 248 251 254 260 272 276 282 284 286 283 287 291 293 288 290 294 296 294 294 296 304 307 307 302 303 nan 301 303 304 305 310 nan nan nan nan nan nan nan nan nan nan nan nan nan nan nan nan nan nan nan nan nan
211 212 215 218 221 222 222 221 219 222 224 228 231 232 232 236 238 236 231 234 235 233 233 231 226 222 223 226 230 232 235 239 244 248 251 253 256 256 256 259 265 274 280 288 294 298 296 294 293 294 294 293 297 304 305 301 303 304 302 nan nan nan nan 313 310 nan nan nan nan nan nan nan nan nan nan nan nan nan nan nan nan nan nan nan nan
212 213 217 219 220 221 222 221 219 220 223 232 236 234 231 234 238 235 228 229 232 234 235 234 229 225 225 228 232 235 239 242 245 250 251 253 255 256 258 262 264 267 271 274 276 280 287 291 295 297 293 296 299 298 300 306 307 301 301 306 nan nan nan nan nan nan nan nan nan nan nan nan nan nan nan nan nan nan nan nan nan nan nan nan nan
213 213 216 218 219 220 221 220 219 219 221 230 234 236 237 236 238 234 226 224 225 228 231 233 231 227 228 231 234 237 241 243 248 258 257 256 258 260 263 263 262 262 265 274 282 284 286 288 291 293 291 294 296 292 295 300 301 294 290 286 289 nan nan nan nan nan nan nan nan nan nan nan nan nan nan nan nan nan nan nan nan nan nan nan nan
216 216 217 219 219 219 220 220 220 219 220 227 233 237 241 243 241 237 233 226 222 222 226 230 230 228 229 232 236 239 242 244 250 259 261 262 260 264 266 266 265 263 262 266 275 282 280 278 277 282 289 293 294 295 300 308 303 295 291 294 298 nan nan nan nan nan nan nan nan nan nan nan nan nan nan nan nan nan nan nan nan nan nan nan nan
218 217 219 220 219 220 221 220 220 219 219 224 232 236 243 246 243 242 240 234 228 223 221 225 228 229 231 238 241 242 243 245 253 260 263 265 263 266 267 267 266 265 263 264 266 271 279 280 277 277 283 293 297 295 300 308 306 298 296 300 300 nan nan nan nan nan nan nan nan nan nan nan nan nan nan nan nan nan nan nan nan nan nan nan nan
218 217 220 221 220 220 221 220 220 219 219 222 230 232 239 246 245 239 240 235 232 228 225 224 226 228 231 237 245 245 245 247 257 261 266 267 265 266 267 267 266 267 268 269 270 272 273 275 275 276 276 282 285 290 295 303 303 303 301 300 295 302 nan nan nan nan nan nan nan nan nan nan nan nan nan nan nan nan nan nan nan nan nan nan nan